CZ-2C R/B - Orbit

View from above orbital plane
View from above orbital plane
View from above satellite
View from above satellite

Ground track
Ground track

The orbit data is extracted from the following two-line orbital elements,

1 36089U 09061B   13145.50832013  .00000198  00000-0  62006-4 0   535
2 36089 098.1529 187.4334 0081647 289.1885 174.5176 14.48903628186808
Epoch (UTC): 25 May 2013 12:11:58
Eccentricity: 0.0081647
inclination: 98.1529°
perigee height: 671 km
apogee height: 787 km
right ascension of ascending node: 187.4334°
argument of perigee: 289.1885°
revolutions per day: 14.48903628
mean anomaly at epoch: 174.5176°
orbit number at epoch: 18680

The dashed part of the orbit path shows where the satellite is in the earth's shadow,  

Developed and maintained by Chris Peat, Heavens-Above GmbH. Please read the updated FAQ before sending e-mail. Imprint. DLR